Flag for Austria Weather past 2 weeks in Perg, Upper Austria, Austria

Now
76 °F

Mild.


Feels Like: 78 °F
Forecast: 57 / 87 °F
Wind: 3 mph from East

Location: Amstetten

Current Time: Aug 1, 2014 at 6:14:07 PM

Latest Report: Aug 1, 2014 at 5:00 PM


Visibility: N/A

Pressure: 29.83 "Hg

Humidity: 65%

Dew point: 63 °F

Location of PergLocation

Historic Weather in Perg — Graph

°F

Perg temperature yesterday

Maximum temperature yesterday: 71 °F (at 2:00 PM)
Minimum temperature yesterday: 63 °F (at 11:00 PM)
Average temperature yesterday: 67 °F

Past Weeks' High & Low Weather Summary

 TemperatureHumidityPressure
High94 °F (Jul 20, 5:00 PM)100% (Jul 24, 8:00 AM)30.14 "Hg (Jul 24, 8:00 AM)
Low54 °F (Jul 24, 5:00 AM)33% (Jul 20, 5:00 PM)29.64 "Hg (Jul 29, 7:00 PM)
Average70 °F78%29.88 "Hg
* Reported Jul 17 5:00 PM — Aug 1 5:00 PM, Perg, Weather by CustomWeather, © 2014

Note: Actual official high and low records may vary slightly from our data, if they occured in-between our weather recording intervals... More about our weather records

Advertising

Perg weather history for previous 24 hours

 ConditionsComfort  
Time TempWeatherWind HumidityBarometerVisibility
5:00 PM
Aug 1
76 °FMild.3 mph65%29.83 "HgN/A
4:00 PM75 °FMild.5 mph69%29.84 "HgN/A
3:00 PM73 °FMild.3 mph72%29.86 "HgN/A
2:00 PM71 °FMild.3 mph77%29.89 "HgN/A
1:00 PM70 °FMild.2 mph79%29.90 "HgN/A
12:00 PM69 °FMild.2 mph82%29.91 "HgN/A
11:00 AM68 °FMild.1 mph85%29.93 "HgN/A
10:00 AM66 °FMild.1 mph86%29.93 "HgN/A
9:00 AM66 °FMild.1 mph92%29.93 "HgN/A
8:00 AM64 °FOvercast.1 mph96%29.93 "HgN/A
7:00 AM63 °FMild.1 mph96%29.94 "HgN/A
6:00 AM63 °FMild.1 mph97%29.94 "HgN/A
5:00 AM63 °FMild.1 mph97%29.95 "HgN/A
4:00 AM63 °FMild.No wind97%29.96 "HgN/A
3:00 AM63 °FMild.1 mph97%29.96 "HgN/A
2:00 AM63 °FMild.2 mph97%29.98 "HgN/A
1:00 AM63 °FFog.2 mph97%29.98 "HgN/A
12:00 AM63 °FMild.2 mph97%29.98 "HgN/A
11:00 PM
Jul 31
63 °FMild.2 mph98%29.98 "HgN/A
10:00 PM64 °FFog.2 mph96%29.98 "HgN/A
9:00 PM64 °FMild.1 mph94%29.97 "HgN/A
8:00 PM64 °FMild.2 mph95%29.94 "HgN/A
7:00 PM65 °FSprinkles. Cloudy.1 mph95%29.94 "HgN/A
6:00 PM67 °FFog.2 mph87%29.92 "HgN/A
Weather by CustomWeather, © 2014

See weather overviewHow to use our weather pages